Погода в Горине

Россия / Хабаровский край     51°11′53″N   136°39′19″E
темп.,
°C
ветер,
м/с
пор.,
м/с
влажн.,
%
обл.,
%
осадки,
мм/ч
давл.,
гПа
погр.,
м
11 августа, чт
чт1101:00+13ююз1195100 0.4 99620
04:00+13ююв1199100 2.4 99663
07:00+14юв2498100 2.1 997268
10:00+16ююв228866 2.3 997538
13:00+19ююв128024 1.3 997770
16:00+19ссз337716 3.2 998794
19:00+17с46816 0.4 999561
22:00+11сз239736 0.4 100184
12 августа, пт
пт1201:00+10з229826 0.0 100142
04:00+11з259699 0.0 1002186
07:00+12сз259499 0.0 1003288
10:00+15ссз358199 0.0 1003712
13:00+17ссз3473100 0.1 1003996
16:00+19ссз3465100 0.1 10021194
19:00+16сз258199 0.0 1003264
22:00+13зсз11945 0.0 100410
13 августа, сб
сб1301:00+12з11955 0.0 100510
04:00+11зюз0096100 0.0 100610
07:00+13ююв009497 0.1 100771
10:00+17юв117957 0.3 1007569
13:00+21ююв226676 0.1 10061054
16:00+21юв236799 0.4 10051004
19:00+19ююв378796 1.0 1004230
22:00+15юв289620 1.0 1005174
14 августа, вс
вс1401:00+14ююв23978 0.0 100545
04:00+13ююв119814 0.0 100612
07:00+14ююз119717 0.0 100663
10:00+19ююв118054 0.0 1006557
13:00+23вюв226227 0.0 10051199
16:00+23вюв216165 0.4 10041312
19:00+21юв23830 0.5 100470
22:00+16ссв11900 0.6 100611
15 августа, пн
пн1501:00+15сз119416 0.0 100611
04:00+14сз119749 0.0 100617
07:00+15сз1395100 0.0 1007135
10:00+17сз238998 0.0 1006408
13:00+22с2269100 0.1 10041045
16:00+20ссз3685100 1.3 1003510
19:00+19ссз2491100 0.6 1002153
22:00+16с2298100 2.3 100151